Wind_Speed
3 1 1 3 2 3 3 3 2 1 1 1 2 3 5 6 7 9 10 10 11 12 13 15 16 16 17 14 12 12 12 13 12 9 7 6 6 7 8 10 11 13 13
5 4 5 5 6 4 3 3 3 3 3 3 3 2 2 3 5 6 8 8 10 12 15 16 16 17 17 15 13 12 11 10 12 12 11 8 8 7 7 8 9 10 10
7 8 5 7 7 6 5 4 2 5 5 5 5 6 5 5 5 7 7 8 10 13 15 16 12 16 17 14 15 16 13 9 10 11 12 13 11 10 11 10 8 10 10
9 10 8 7 10 8 6 5 2 3 7 6 7 6 15 9 7 9 9 6 9 12 13 14 12 16 18 18 22 19 9 8 8 11 13 13 13 13 12 11 12 10 10
13 13 11 9 9 9 8 4 5 5 5 6 7 9 12 12 11 11 11 10 9 11 12 13 13 17 18 19 20 20 14 10 10 13 15 15 14 13 13 11 11 11 10
14 13 12 11 10 12 11 5 9 5 6 7 9 10 11 11 13 13 13 12 13 14 12 12 14 15 15 17 16 15 12 10 12 12 15 17 18 18 16 14 13 12 13
14 14 11 11 11 12 11 16 10 7 7 6 11 14 6 12 9 12 12 13 13 16 13 12 11 14 13 12 14 15 14 11 11 13 15 16 14 14 17 16 14 12 12
14 14 12 12 11 3 21 14 13 11 9 8 6 13 14 5 11 11 9 15 14 11 10 10 10 12 9 14 12 13 14 13 13 14 16 17 15 15 14 14 14 13 13
14 14 12 11 12 13 13 14 13 13 11 10 9 9 13 18 2 9 8 10 13 6 6 8 11 15 13 13 13 12 13 13 14 15 15 18 18 16 14 14 14 14 13
13 14 13 11 11 13 13 12 13 14 13 12 11 12 11 16 17 12 8 14 10 7 8 7 10 11 12 8 9 11 12 12 14 15 16 17 17 17 16 16 16 16 17
13 15 14 13 14 14 12 16 14 14 15 15 14 14 14 14 15 14 12 15 14 12 9 9 9 10 13 11 14 14 13 15 18 19 19 20 19 20 19 18 17 17 17
16 17 17 16 15 16 16 20 14 15 15 16 17 17 16 16 16 14 13 13 14 13 13 12 9 11 12 11 13 15 17 19 21 22 21 21 20 21 21 20 18 17 19
21 20 20 20 19 19 19 19 16 17 17 17 19 19 19 18 16 14 13 15 16 17 16 16 16 16 14 15 15 17 18 21 23 24 23 22 22 23 23 22 23 21 19
25 23 24 25 23 22 20 18 20 19 20 19 21 21 21 17 16 16 17 18 19 19 19 18 18 19 20 21 22 19 19 18 22 24 25 26 25 25 24 24 24 24 23
28 27 29 30 31 25 23 23 24 21 20 21 21 21 19 19 18 19 20 20 21 20 23 24 26 24 25 24 26 26 23 23 22 23 24 26 26 26 26 25 25 24 25
28 27 34 16 30 29 28 26 24 23 21 20 20 20 19 20 19 20 21 21 22 22 24 29 35 39 25 34 30 31 27 29 27 25 26 27 28 29 28 27 27 28 28
27 30 31 35 33 31 29 28 26 24 22 22 21 21 22 20 22 22 22 22 23 26 29 32 36 41 50 38 38 35 32 31 28 30 31 32 32 32 32 32 32 32 32
25 29 31 30 30 30 28 28 29 26 26 25 24 26 25 24 25 25 25 26 28 32 32 28 37 40 44 45 47 38 32 33 30 28 32 35 35 35 35 35 33 34 34
25 27 28 28 28 27 28 31 30 31 31 32 32 30 30 29 29 29 29 30 31 28 27 26 23 32 37 31 33 38 32 35 39 37 34 37 35 36 37 37 37 35 36
26 27 29 30 32 34 35 44 37 35 35 36 34 33 34 35 35 35 33 33 29 27 29 29 26 27 27 27 29 35 39 41 43 43 44 37 36 40 38 38 36 36 37
29 29 30 32 34 34 41 34 45 40 40 40 39 38 38 40 44 39 38 34 32 32 33 32 30 31 32 33 37 41 43 46 45 47 48 47 43 36 34 38 38 38 36
24 28 25 27 33 36 35 37 37 43 49 47 44 45 48 45 45 41 43 39 38 36 37 37 36 38 37 38 41 43 46 49 48 48 50 47 47 43 40 37 35 42 41
20 20 26 32 31 32 31 33 41 47 55 54 53 50 47 47 44 43 40 40 42 41 41 42 41 44 44 45 47 48 49 52 51 49 50 49 49 49 47 44 42 40 39
25 27 29 26 29 31 28 27 29 39 51 62 48 47 44 35 38 40 40 44 45 46 47 49 48 47 50 51 53 55 55 56 55 54 52 53 48 49 53 48 45 38 38
28 22 19 17 18 23 28 24 24 20 34 49 49 30 29 33 36 43 46 48 50 51 53 55 53 51 54 55 56 55 54 57 55 53 53 54 49 48 50 51 49 40 41
27 25 21 21 22 24 25 26 26 24 25 25 29 35 40 45 48 50 51 52 52 55 56 58 57 57 56 55 54 54 53 52 50 49 50 51 51 51 52 50 47 43 39
Wind_Direction
274 332 341 349 17 38 25 355 341 285 236 200 111 93 65 52 47 39 35 26 30 25 17 10 5 360 355 353 356 358 4 11 14 4 352 346 340 333 326 330 331 331 322
272 278 285 307 340 353 1 343 347 328 259 261 264 286 355 9 7 21 18 11 12 12 6 4 356 0 357 355 355 350 342 356 11 17 14 356 347 340 334 327 316 324 321
273 282 279 283 309 318 323 341 331 332 298 268 283 297 300 306 320 325 343 339 353 357 360 0 12 10 5 357 348 336 333 352 10 18 18 18 12 345 331 325 330 326 332
279 278 282 292 300 306 301 313 326 298 307 296 283 248 272 280 293 302 308 323 342 337 355 0 1 8 10 9 5 3 346 8 13 11 6 360 356 356 353 338 319 313 322
278 283 289 289 301 288 281 312 198 258 269 287 282 290 278 273 274 282 293 303 316 330 338 343 355 1 5 16 19 27 37 32 17 4 6 4 356 345 345 341 327 318 307
279 281 285 290 290 286 281 281 259 249 256 272 278 323 295 277 276 279 281 289 295 303 304 322 338 347 354 14 19 25 23 19 8 7 3 5 11 9 359 351 344 335 329
286 289 292 285 282 281 268 259 261 271 266 288 266 259 280 256 250 277 285 286 292 303 305 300 313 330 346 3 12 23 19 10 358 343 338 337 340 357 5 358 354 347 335
280 285 281 279 277 144 269 272 269 276 280 278 286 299 284 189 301 265 283 301 303 303 300 305 315 314 331 345 350 358 0 1 7 7 8 8 354 342 347 351 344 333 335
278 278 271 267 267 264 260 268 271 276 282 287 286 272 286 282 204 135 303 302 295 293 320 332 328 327 317 324 332 347 346 350 350 352 357 1 0 357 350 347 347 341 326
276 276 271 272 270 267 266 270 271 273 273 277 271 269 257 288 288 290 287 298 274 274 302 313 327 326 338 315 327 328 332 337 340 340 342 346 345 342 338 344 345 346 339
285 282 280 276 269 265 276 274 261 266 270 269 264 256 251 255 261 268 241 241 255 270 280 297 320 306 324 322 317 317 321 329 327 324 331 333 333 336 333 331 334 339 343
293 289 284 278 277 274 263 263 262 268 260 258 255 253 253 257 258 252 259 261 266 279 288 288 290 287 294 301 311 312 315 317 320 324 325 322 323 325 327 327 326 327 328
292 288 283 278 272 269 270 271 268 260 257 261 254 250 253 259 264 264 264 275 283 289 293 298 298 288 292 288 296 301 305 314 319 318 317 316 316 316 315 317 318 319 322
287 284 281 277 270 266 264 265 264 264 258 249 252 247 251 253 257 264 271 275 281 289 294 293 288 291 294 293 291 290 295 305 305 312 314 312 311 312 315 314 314 319 324
286 289 292 283 277 271 265 259 259 258 255 245 242 244 245 244 245 262 265 270 279 287 292 292 292 289 289 286 287 289 293 297 308 312 311 312 310 310 313 312 311 314 316
284 285 280 235 286 281 272 263 258 258 252 245 239 237 243 243 245 251 261 272 277 282 286 289 293 286 276 287 284 285 289 293 297 303 308 307 310 312 311 307 304 303 306
278 280 278 280 281 277 273 267 259 251 242 242 239 239 242 250 254 260 263 264 273 277 284 282 284 288 283 278 281 279 282 292 298 305 308 309 306 303 303 303 300 298 295
277 276 278 281 280 275 271 268 262 250 239 236 238 239 247 251 256 262 263 266 275 275 275 280 269 277 284 284 275 271 274 287 294 296 300 298 300 300 300 299 300 295 293
268 271 277 280 278 275 273 270 265 254 243 242 242 244 247 249 255 258 264 269 271 276 273 279 285 283 280 266 251 263 287 296 297 297 293 293 294 294 295 296 297 297 296
261 271 278 279 282 281 285 260 256 255 249 249 250 250 251 253 257 257 265 269 273 276 274 274 275 285 276 277 266 275 285 289 293 295 293 292 294 297 297 295 294 293 293
256 256 257 262 268 272 276 284 275 255 248 248 250 251 252 256 257 261 267 269 273 271 274 275 274 272 272 269 269 273 279 284 287 286 290 294 292 291 290 294 293 291 292
253 258 295 263 275 270 269 279 280 271 237 239 242 245 249 258 254 259 266 269 268 271 275 277 277 276 274 273 271 272 275 278 282 286 287 290 289 289 292 288 287 292 294
310 289 299 280 265 268 268 279 274 266 243 240 240 242 247 254 251 259 263 268 273 276 276 276 274 277 280 279 279 279 280 282 284 286 287 289 290 292 289 289 293 293 288
299 299 301 278 252 251 263 274 296 258 244 244 241 241 238 250 258 266 270 271 274 275 274 272 272 273 273 273 273 273 276 278 284 287 287 285 285 285 286 289 292 290 289
292 299 301 273 253 265 268 270 281 283 259 250 245 243 259 262 263 268 271 271 272 274 274 273 274 274 273 271 270 270 274 276 278 279 281 280 282 281 284 288 289 287 286
298 299 283 267 255 260 266 271 273 268 260 261 250 248 248 251 261 267 267 270 272 272 272 273 276 276 274 273 274 276 275 273 276 278 279 279 281 283 283 284 284 285 290
Height
5945 5946 5945 5945 5944 5943 5943 5943 5943 5943 5942 5943 5942 5941 5940 5940 5939 5939 5938 5938 5935 5934 5932 5930 5927 5925 5923 5921 5919 5917 5916 5914 5912 5911 5910 5909 5908 5908 5907 5906 5906 5906 5904
5945 5945 5945 5945 5945 5945 5944 5944 5944 5944 5943 5943 5943 5942 5942 5941 5940 5940 5940 5939 5937 5936 5934 5932 5930 5926 5923 5920 5918 5916 5916 5915 5913 5912 5911 5910 5909 5907 5906 5906 5905 5905 5904
5945 5944 5945 5945 5945 5945 5944 5944 5943 5943 5943 5942 5943 5944 5943 5942 5940 5940 5940 5939 5938 5937 5935 5933 5931 5929 5925 5922 5919 5916 5915 5915 5914 5914 5913 5911 5909 5908 5908 5906 5905 5904 5903
5944 5944 5944 5944 5945 5944 5943 5943 5943 5943 5943 5942 5942 5945 5940 5941 5940 5940 5940 5940 5940 5937 5936 5934 5932 5930 5926 5923 5920 5915 5914 5916 5916 5915 5914 5912 5910 5909 5908 5906 5905 5904 5902
5942 5942 5943 5943 5943 5942 5941 5943 5914 5943 5941 5940 5940 5940 5940 5939 5938 5937 5938 5938 5938 5938 5935 5934 5932 5930 5928 5926 5922 5919 5918 5918 5918 5916 5915 5913 5911 5909 5907 5906 5904 5903 5902
5941 5941 5941 5941 5941 5940 5940 5942 5941 5940 5939 5938 5937 5935 5938 5938 5938 5936 5936 5936 5935 5934 5935 5933 5931 5930 5929 5927 5924 5922 5921 5919 5919 5918 5916 5914 5912 5910 5908 5906 5904 5903 5902
5939 5940 5939 5939 5939 5938 5940 5938 5937 5937 5936 5936 5931 5906 5925 5934 5930 5934 5935 5934 5932 5931 5932 5932 5932 5930 5928 5926 5924 5924 5923 5921 5919 5918 5916 5914 5912 5910 5909 5908 5906 5903 5902
5936 5936 5937 5937 5936 5938 5934 5933 5933 5933 5933 5933 5934 5927 5928 5896 5927 5927 5926 5931 5932 5931 5930 5930 5929 5929 5930 5928 5926 5924 5923 5922 5919 5917 5916 5913 5912 5910 5909 5907 5905 5903 5901
5934 5933 5933 5933 5933 5934 5933 5932 5931 5931 5930 5931 5930 5931 5926 5900 5912 5888 5923 5925 5930 5929 5928 5928 5928 5927 5927 5927 5926 5925 5924 5922 5920 5919 5917 5915 5913 5911 5909 5907 5904 5902 5900
5931 5931 5930 5929 5930 5930 5930 5930 5929 5928 5928 5927 5927 5927 5927 5918 5916 5920 5921 5926 5927 5925 5926 5926 5926 5925 5925 5924 5924 5923 5922 5920 5919 5918 5916 5914 5912 5910 5908 5906 5904 5902 5899
5929 5929 5927 5926 5927 5927 5930 5928 5926 5926 5926 5925 5925 5924 5924 5925 5924 5922 5924 5924 5922 5922 5922 5922 5923 5923 5923 5922 5921 5920 5919 5918 5917 5915 5914 5913 5911 5909 5906 5904 5902 5901 5898
5927 5926 5925 5924 5924 5924 5928 5926 5924 5923 5922 5922 5922 5920 5920 5920 5920 5920 5921 5921 5920 5921 5921 5921 5920 5919 5918 5918 5917 5917 5916 5915 5914 5913 5913 5912 5911 5909 5907 5904 5901 5898 5897
5924 5923 5921 5920 5919 5919 5920 5921 5921 5921 5920 5919 5919 5919 5917 5917 5917 5917 5918 5919 5919 5920 5920 5920 5920 5918 5916 5915 5914 5913 5913 5913 5913 5912 5911 5910 5909 5908 5905 5903 5900 5897 5895
5919 5920 5917 5917 5916 5915 5915 5915 5914 5915 5915 5915 5915 5916 5916 5916 5916 5915 5915 5916 5917 5917 5916 5916 5915 5914 5914 5914 5912 5911 5910 5910 5908 5908 5907 5906 5905 5903 5901 5899 5897 5895 5892
5914 5914 5913 5909 5910 5912 5911 5910 5909 5909 5909 5909 5909 5910 5912 5912 5913 5913 5913 5913 5913 5914 5912 5911 5910 5911 5910 5909 5908 5908 5907 5904 5903 5902 5901 5900 5900 5900 5899 5897 5894 5892 5889
5909 5909 5895 5875 5901 5906 5907 5905 5904 5903 5904 5904 5905 5905 5906 5906 5909 5908 5908 5908 5908 5909 5909 5906 5904 5901 5908 5902 5903 5900 5901 5900 5899 5897 5896 5895 5896 5896 5894 5892 5890 5888 5886
5903 5902 5902 5899 5898 5900 5902 5901 5899 5898 5900 5899 5900 5901 5899 5902 5903 5904 5904 5904 5903 5902 5903 5903 5899 5896 5893 5896 5894 5895 5893 5894 5894 5891 5891 5890 5888 5887 5887 5886 5884 5882 5880
5895 5895 5894 5896 5895 5894 5896 5896 5895 5894 5893 5894 5892 5894 5895 5897 5897 5898 5897 5899 5898 5897 5897 5896 5894 5891 5886 5884 5884 5886 5886 5886 5887 5885 5883 5882 5881 5879 5878 5878 5876 5873 5872
5885 5886 5887 5888 5889 5889 5889 5890 5891 5889 5888 5887 5887 5888 5888 5889 5890 5890 5890 5890 5890 5890 5890 5890 5888 5883 5879 5876 5876 5877 5876 5878 5877 5876 5877 5875 5874 5872 5870 5869 5869 5866 5865
5877 5879 5880 5880 5881 5881 5880 5880 5881 5883 5882 5881 5881 5881 5881 5882 5882 5882 5883 5882 5881 5881 5881 5880 5879 5876 5873 5871 5872 5872 5871 5870 5870 5866 5865 5869 5866 5861 5860 5859 5859 5857 5855
5867 5867 5867 5867 5869 5871 5871 5869 5868 5871 5874 5873 5873 5872 5872 5874 5872 5874 5874 5874 5874 5873 5873 5871 5871 5870 5868 5865 5862 5863 5863 5860 5860 5858 5854 5853 5851 5855 5853 5849 5850 5847 5846
5850 5855 5856 5855 5857 5858 5858 5857 5856 5857 5858 5859 5859 5861 5861 5861 5863 5866 5865 5864 5863 5863 5863 5861 5861 5861 5860 5859 5856 5855 5853 5851 5852 5848 5843 5845 5841 5840 5840 5843 5843 5836 5834
5847 5845 5845 5844 5845 5846 5846 5845 5843 5840 5842 5844 5846 5848 5850 5850 5852 5854 5854 5854 5853 5851 5851 5850 5850 5849 5850 5847 5846 5844 5840 5839 5838 5838 5834 5835 5833 5830 5828 5828 5829 5826 5826
5838 5836 5833 5832 5833 5834 5836 5834 5830 5828 5827 5831 5835 5836 5839 5841 5844 5843 5843 5843 5843 5842 5841 5840 5839 5839 5839 5837 5834 5832 5831 5828 5826 5825 5825 5822 5824 5821 5817 5817 5817 5815 5809
5830 5828 5826 5825 5826 5827 5828 5825 5824 5820 5823 5823 5828 5828 5830 5832 5834 5833 5833 5832 5832 5831 5829 5828 5827 5825 5826 5825 5823 5821 5821 5817 5817 5816 5815 5811 5812 5810 5807 5804 5803 5803 5799
5820 5819 5820 5821 5821 5822 5821 5821 5820 5821 5821 5822 5822 5821 5822 5824 5823 5823 5821 5821 5820 5818 5816 5815 5813 5811 5811 5811 5809 5805 5805 5805 5804 5803 5803 5800 5798 5797 5795 5792 5791 5791 5788